Regional Weather Roundup
Issued by NWS Wakefield, VA

Home | Current Version | Previous Version | Text Only | Print | Product List | Glossary On
Versions: 1 2 3 4 5 6 7 8 9 10 11 12 13 14 15 16 17 18 19 20 21 22 23 24 25 26 27 28 29 30 31 32 33 34 35 36 37 38 39 40 41 42 43 44 45 46 47 48 49 50
000
ASUS41 KAKQ 232010
RWRAKQ

REGIONAL WEATHER ROUNDUP
NATIONAL WEATHER SERVICE WAKEFIELD VA
400 PM EDT TUE SEP 23 2014

Note: "fair" indicates few or no clouds below 12,000 feet with no
significant weather and/or obstructions to visibility. * = Denotes
station may not report precipitation (e.g., rain,snow,etc.),
thunder or fog.

VAZ042-051-052>054-056-232100-
NORTHERN VIRGINIA

CITY           SKY/WX    TMP DP  RH WIND       PRES   REMARKS
WASH NATIONAL  PTSUNNY   74  43  32 NE8       30.32F
DULLES         PTSUNNY   68  41  37 NE6       30.32F
FORT BELVOIR   MOSUNNY   70  43  37 VRB3      30.31F
QUANTICO       PTSUNNY   69  43  38 VRB6      30.33F
FREDERICKSBRG* MOSUNNY   71  43  36 NE7       30.31S
STAFFORD*      MOSUNNY   69  47  45 SW5       30.36S
WARRENTON      MOSUNNY   70  49  46 E6        30.31F
CULPEPER*      PTSUNNY   72  43  35 CALM      30.33S
MANASSAS*      SUNNY     70  45  40 CALM      30.31
LEESBURG*      MOSUNNY   70  46  43 N6        30.33F
WINCHESTER     MOSUNNY   70  37  30 SE3       30.32F
FRONT ROYAL*   MOCLDY    66  39  37 N3        30.31F
LURAY*         MOCLDY    70  43  37 NE5       30.32F
$$

VAZ048-049-060>072-079>083-232100-
CENTRAL AND SOUTH CENTRAL VIRGINIA...AND NORTH CENTRAL NORTH CAROLINA

CITY           SKY/WX    TMP DP  RH WIND       PRES   REMARKS
RICHMOND       PTSUNNY   70  44  39 N10       30.31F
CHESTERFIELD*  MOCLDY    66  41  39 NE5       30.32F
PETERSBURG*    PTSUNNY   67  45  44 N7        30.30F
HANOVER        MOSUNNY   66  46  48 VRB6      30.32F
TAPPAHANNOCK*  MOSUNNY   68  41  37 NW5       30.32F
CHARLOTTSVILLE PTSUNNY   69  41  36 VRB5      30.32F
ORANGE*        PTSUNNY   70  39  32 NW3       30.33S
LOUISA*        MOSUNNY   66  43  42 NE6       30.31F
FARMVILLE*     CLOUDY    64  45  48 NE6       30.30F
CREWE*         CLOUDY    63  46  52 N8        30.31F
FORT PICKETT*  CLOUDY    63  48  58 N8        30.31S
LUNENBURG*     CLOUDY    63  50  63 N5        30.31S
SOUTH HILL*    CLOUDY    63  52  67 N5        30.35F
LAWRENCEVILLE* CLOUDY    60  51  72 CALM      30.30S
ROANOKE RAPIDS CLOUDY    63  52  67 N9        30.30R
RALEIGH        CLOUDY    61  50  67 N7        30.31F
$$

VAZ088>098-232100-
SOUTHEAST VIRGINIA

CITY           SKY/WX    TMP DP  RH WIND       PRES   REMARKS
NORFOLK        CLOUDY    64  52  64 NE13      30.30F
VIRGINIA BEACH CLOUDY    65  53  65 NE13      30.28F
NORFOLK NAVAL  CLOUDY    65  51  60 N10       30.31F
WEST POINT*    PTSUNNY   68  45  43 NE7       30.33F
NEWPORT NEWS   CLOUDY    66  51  58 NE8       30.31S
LANGLEY AFB    PTSUNNY   63  51  64 NE10      30.30F
FORT EUSTIS    CLOUDY    64  45  51 N7        30.30F
WILLIAMSBURG*  CLOUDY    68  52  56 N3        30.32F
HR EXEC AP*    CLOUDY    63  52  67 N7        30.32F
FRANKLIN*      CLOUDY    64  48  55 NE9       30.30F
WAKEFIELD      PTSUNNY   64  48  56 NE3       30.31F
$$

VAZ020-022-025-037-045-232100-
WEST CENTRAL AND SOUTHWEST VIRGINIA

CITY           SKY/WX    TMP DP  RH WIND       PRES   REMARKS
STAUNTON*      PTSUNNY   66  39  36 E3        30.35R
HOT SPRINGS VA PTSUNNY   56  25  30 NE6       30.37S
LYNCHBURG      CLOUDY    60  48  64 NE3       30.33F
DANVILLE       CLOUDY    61  47  59 NE6       30.32F
SOUTH BOSTON*  NOT AVBL
MARTINSVILLE   CLOUDY    61  50  66 CALM      30.36S
ROANOKE        CLOUDY    61  49  64 SE5       30.34F
BLACKSBURG     CLOUDY    59  52  77 S3        30.36S
DUBLIN*        CLOUDY    61  52  72 SE3       30.35S
MARION*        PTSUNNY   62  51  67 E5        30.35S
HILLSVILLE*    CLOUDY    58  51  80 S3        30.33F
RICHLANDS*     CLEAR     71  50  47 CALM      30.30F
WISE*          SUNNY     70  43  37 S3        30.30F
ABINGDON*      MOSUNNY   71  51  49 SE6       30.28S
$$

MDZ021>025-VAZ099-100-232100-
SOUTHERN MARYLAND AND THE DELMARVA PENINSULA

CITY           SKY/WX    TMP DP  RH WIND       PRES   REMARKS
PATUXENT RIVER CLOUDY    66  43  43 N8        30.31F
BAY BRIDGE APT   N/A     64  41  42 W3        30.33F
LEONARDTOWN    PTSUNNY   64  41  42 NE6       30.33F
DOVER          PTSUNNY   64  46  52 E8        30.31F
GEORGETOWN     CLOUDY    64  45  49 NE9       30.33F
EASTON         PTSUNNY   68  48  49 NE7       30.35F
CAMBRIDGE      CLOUDY    66  45  45 CALM      30.31S
SALISBURY      CLOUDY    66  47  50 NE5       30.31F
OCEAN CITY     CLOUDY    64  45  49 NE8       30.32F
WALLOPS ISLAND CLOUDY    64  50  60 E9        30.32F
ACCOMACK*      CLOUDY    63  46  55 N3        30.31S
$$

NCZ012>017-030>032-232100-
EASTERN NORTH CAROLINA

CITY           SKY/WX    TMP DP  RH WIND       PRES   REMARKS
ELIZABETH CITY CLOUDY    65  56  72 N13       30.26F
AHOSKIE*       CLOUDY    64  51  64 N12       30.29S
EDENTON*       CLOUDY    64  56  78 N7        30.26F
CURRITUCK*     CLOUDY    67  53  61 NE10      30.28S
KILL DEVIL HLS CLOUDY    67  58  73 N10G17    30.23S
MANTEO         CLOUDY    66  59  77 N13G24    30.24S
CAPE HATTERAS  CLOUDY    68  61  78 NE14G24   30.19F
TARBORO*       CLOUDY    66  54  65 NE8       30.28S
GOLDSBORO      CLOUDY    63  58  86 N7G18     30.24F
WASHINGTON     CLOUDY    62  57  86 N8        30.25S
GREENVILLE     CLOUDY    64  55  72 N9        30.26F
NEW BERN       LGT RAIN  65  59  81 N8        30.23F
WILMINGTON     CLOUDY    64  59  83 N12       30.19S
$$

VAZ048-232100-
ELSEWHERE

CITY           SKY/WX    TMP DP  RH WIND       PRES   REMARKS
HARRISBURG PA  MOSUNNY   71  47  42 SW5       30.31F
BALTIMORE      PTSUNNY   70  43  37 VRB3      30.30F
ANNAPOLIS      PTSUNNY   66  44  45 SE5       30.32F
ANDREWS AFB    MOSUNNY   68  44  41 VRB3      30.31F
WILMINGTON DE  MOSUNNY   69  44  40 E8        30.32F
PHILADELPHIA   PTSUNNY   71  42  35 SE6       30.32F
WILDWOOD NJ*   CLOUDY    64  46  52 SE8       30.34F
ATLANTIC CITY  PTSUNNY   65  49  56 E6        30.32F
HENDERSON NC   CLOUDY    60  49  68 N5        30.31F
GREENSBORO     CLOUDY    59  46  62 NE8       30.31F
ROCKY MOUNT    CLOUDY    64  52  64 N12       30.28F
FAYETTEVILLE   CLOUDY    62  55  77 N10       30.24F
CHARLOTTE      LGT RAIN  58  51  78 N8        30.30F
$$

VAZ100-232100-
MARINE

STATION/POSITION TIME  TEMP    WIND        PRES    WAVE   SWELL
                       AIR SEA DIR/SP/G            HT/PER HT/PER
                 (UTC) (F)     (DEG/KT/KT) (MB)    (FT/S) (FT/S)
44066 TX TWR #4  2000   62 71   20/  6/  8 1026.5F   3/ 8   2/ 8
CAPE MAY NJ      2000   62 74  330/  2/  3 1026.4F
LEWES DE         2000   61 69   50/  2/  4 1026.6F
15NM E FENWICK I 2000   62 71              1026.3F   2/ 7
OCEAN-CITY-INLET 2000   62 70   20/  7/ 10 1026.3R
WACHAPREAGUE VA  2000   64 69   60/  7/ 12 1026.2R
THOMAS POINT MD  2000   63 72  350/  4/  5 1027.8F
GOOSES REEF MD   2000   63      20/  8/ 10 1027.3F
COVE POINT MD    2000   62      10/  6/  8 1026.5F
SOLOMONS ISLAND  2000      74                N/A
BISHOPS HEAD MD  2000   63 67   10/  4/  8 1026.0F
PINEY POINT MD   2000           50/  7/ 10   N/A
POTOMAC MD       2000   62      40/  8/ 10 1026.0F
CAMBRIDGE MD     2000   65 71  320/  1/  1 1026.3F
LEWISETTA VA     2000   63 69   60/  4/  6 1026.4R
RAPPAHANNOCK LGT 2000           10/  6/  8 1026.9R
STINGRAY PT      2000   62      20/ 10/ 14   N/A
YORK RVR RNG VA  2000   62      20/ 12/ 16 1025.8F
YORKTOWN VA      2000   62 75   30/  8/ 11 1026.1F
JAMESTOWN VA     2000   62      40/  6/ 10   N/A
DOMINION TERM VA 2000   64      40/  5/ 11 1026.2F
KIPTOPEKE VA     2000      76   30/  7/  9   N/A
CHES BAY BRIDGE  2000   63 74   20/ 12/ 15 1025.3F
CAPE HENRY VA    2000   64      20/ 14/ 18 1024.5F
CHESAPEAKE LGHT  1900   64      40/ 14/ 16 1026.3F
WILLOUBY STN VA  2000   63      20/ 11/ 13 1024.8R
S CRANEY ISL VA  2000           10/  9/ 12 1025.7R
CAPE HENRY BUOY  2000      74                N/A     4/ 6
1ST LANDING BUOY 2000   65      30/ 14/ 19 1025.5F
CAPE CHARLES BUO 2000      73                N/A     3/ 5   2/ 6
OFFSHORE WE BUOY 2000      73                N/A     4/ 6   2/ 7
64NM E OF VA BCH 2000   68 75   30/ 16/ 19 1023.9F   4/ 5   2/ 7
DUCK PIER NC     2000   67 73   30/ 20/ 23 1023.3R
44100 DUCK FRF   2000      74                N/A     4/ 6
44056 DUCK FRF   2000                        N/A     4/ 5
OREGON INLET NC  2000   68 73   20/ 15/ 22 1023.2S
DIAMOND SHLS NC  2000   73      10/ 27/ 31 1020.4F   7/ 6
CAPE LOOKOUT NC  1900   68      20/ 18/ 22 1021.7F
$$


USA.gov is the U.S. government's official web portal to all federal, state and local government web resources and services.